N882SB MMMX-MGGT

Flight info

Callsign N882SB
Flight time 1h 35m
Altitude 33000
Route UKUNO3A UKUNO UT108 VER UA552 AUR
Aircraft MD82/M-SDFGIRWY/C

Departure

Time 2026-05-01 13:13
Airport Mexico City Benito Juárez International Airport (MMMX)

Arrival

Time 2026-05-01 14:48
Airport La Aurora International Airport (MGGT)
Time Latitude Longitude Altitude Speed Heading
2026-05-01 12:27 19.42166 -99.08203 7341 ft 0 kts 210°
2026-05-01 12:48 19.42176 -99.08197 7341 ft 3 kts 210°
2026-05-01 12:48 19.42192 -99.08187 7341 ft 1 kts 208°
2026-05-01 12:49 19.42202 -99.08182 7340 ft 1 kts 201°
2026-05-01 12:49 19.42211 -99.08179 7340 ft 1 kts 184°
2026-05-01 12:49 19.42213 -99.08179 7340 ft 0 kts 180°
2026-05-01 13:07 19.42573 -99.08590 7339 ft 0 kts 329°
2026-05-01 13:09 19.42574 -99.08590 7339 ft 0 kts 329°
2026-05-01 13:09 19.42582 -99.08595 7339 ft 4 kts 328°
2026-05-01 13:09 19.42629 -99.08627 7338 ft 11 kts 326°
2026-05-01 13:09 19.42699 -99.08591 7339 ft 14 kts 58°
2026-05-01 13:10 19.42747 -99.08503 7342 ft 13 kts 60°
2026-05-01 13:10 19.42794 -99.08417 7344 ft 13 kts 59°
2026-05-01 13:10 19.42844 -99.08333 7347 ft 13 kts 57°
2026-05-01 13:10 19.42895 -99.08248 7347 ft 13 kts 59°
2026-05-01 13:11 19.42932 -99.08179 7348 ft 0 kts 60°
2026-05-01 13:12 19.42935 -99.08174 7348 ft 4 kts 60°
2026-05-01 13:12 19.43001 -99.08053 7347 ft 39 kts 60°
2026-05-01 13:12 19.43212 -99.07673 7346 ft 79 kts 59°
2026-05-01 13:12 19.43569 -99.07040 7337 ft 121 kts 60°
2026-05-01 13:13 19.44067 -99.06162 7336 ft 155 kts 59°
2026-05-01 13:13 19.44639 -99.05102 7495 ft 172 kts 61°
2026-05-01 13:13 19.45188 -99.03968 7929 ft 174 kts 65°
2026-05-01 13:13 19.45681 -99.02787 8301 ft 180 kts 66°
2026-05-01 13:14 19.46112 -99.01511 8604 ft 192 kts 75°
2026-05-01 13:14 19.46260 -99.00053 8858 ft 207 kts 94°
2026-05-01 13:14 19.45882 -98.98576 9380 ft 208 kts 120°
2026-05-01 13:14 19.44918 -98.97479 9850 ft 211 kts 149°
2026-05-01 13:15 19.43387 -98.96838 9515 ft 258 kts 173°
2026-05-01 13:15 19.41566 -98.96918 9922 ft 267 kts 198°
2026-05-01 13:15 19.39889 -98.97631 10885 ft 252 kts 198°
2026-05-01 13:15 19.38161 -98.97794 11355 ft 262 kts 165°
2026-05-01 13:16 19.36612 -98.96793 11800 ft 264 kts 126°
2026-05-01 13:16 19.35921 -98.95033 12263 ft 265 kts 89°
2026-05-01 13:16 19.36344 -98.93184 12735 ft 262 kts 53°
2026-05-01 13:17 19.40528 -98.89311 13997 ft 277 kts 38°
2026-05-01 13:17 19.42023 -98.87994 14427 ft 283 kts 38°
2026-05-01 13:18 19.45123 -98.85263 15221 ft 297 kts 39°
2026-05-01 13:18 19.46713 -98.83862 15638 ft 302 kts 39°
2026-05-01 13:18 19.48355 -98.82416 16014 ft 309 kts 39°
2026-05-01 13:18 19.50029 -98.80942 16415 ft 315 kts 39°
2026-05-01 13:19 19.51726 -98.79444 16791 ft 321 kts 39°
2026-05-01 13:19 19.53462 -98.77915 17184 ft 326 kts 39°
2026-05-01 13:19 19.57003 -98.74797 17893 ft 338 kts 39°
2026-05-01 13:20 19.58820 -98.73197 18226 ft 331 kts 39°
2026-05-01 13:20 19.60562 -98.71615 18323 ft 335 kts 47°
2026-05-01 13:20 19.61712 -98.69486 18496 ft 344 kts 75°
2026-05-01 13:21 19.60797 -98.64558 18867 ft 364 kts 128°
2026-05-01 13:21 19.59165 -98.62449 19144 ft 372 kts 129°
2026-05-01 13:21 19.57492 -98.60274 19287 ft 385 kts 129°
2026-05-01 13:21 19.55781 -98.58051 19476 ft 395 kts 129°
2026-05-01 13:22 19.54039 -98.55788 19815 ft 400 kts 128°
2026-05-01 13:22 19.52617 -98.53270 20210 ft 403 kts 112°
2026-05-01 13:22 19.51651 -98.50486 20663 ft 404 kts 107°
2026-05-01 13:22 19.50887 -98.47610 21098 ft 406 kts 103°
2026-05-01 13:23 19.50254 -98.44697 21312 ft 413 kts 101°
2026-05-01 13:23 19.49692 -98.41744 22092 ft 404 kts 100°
2026-05-01 13:23 19.49174 -98.38777 22189 ft 414 kts 99°
2026-05-01 13:23 19.48680 -98.35782 22749 ft 411 kts 98°
2026-05-01 13:24 19.48200 -98.32770 22881 ft 420 kts 98°
2026-05-01 13:24 19.47724 -98.29728 23446 ft 416 kts 98°
2026-05-01 13:24 19.47253 -98.26686 23615 ft 424 kts 98°
2026-05-01 13:25 19.46308 -98.20544 24295 ft 429 kts 98°
2026-05-01 13:25 19.45831 -98.17429 24616 ft 430 kts 98°
2026-05-01 13:25 19.45351 -98.14304 24988 ft 431 kts 98°
2026-05-01 13:25 19.44868 -98.11152 25249 ft 434 kts 98°
2026-05-01 13:26 19.44384 -98.07997 25589 ft 435 kts 98°
2026-05-01 13:26 19.43898 -98.04836 25805 ft 439 kts 98°
2026-05-01 13:26 19.43405 -98.01634 26168 ft 439 kts 98°
2026-05-01 13:26 19.42914 -97.98448 26332 ft 443 kts 98°
2026-05-01 13:27 19.42417 -97.95225 26740 ft 442 kts 98°
2026-05-01 13:27 19.41924 -97.92031 26849 ft 447 kts 98°
2026-05-01 13:27 19.40914 -97.85502 27297 ft 452 kts 98°
2026-05-01 13:28 19.39898 -97.78947 27764 ft 455 kts 98°
2026-05-01 13:28 19.39388 -97.75661 28091 ft 454 kts 98°
2026-05-01 13:29 19.38363 -97.69075 28446 ft 458 kts 98°
2026-05-01 13:29 19.37327 -97.62441 28978 ft 457 kts 98°
2026-05-01 13:30 19.35258 -97.49216 30029 ft 454 kts 98°
2026-05-01 13:31 19.34229 -97.42672 30445 ft 453 kts 98°
2026-05-01 13:31 19.32672 -97.32794 31020 ft 453 kts 98°
2026-05-01 13:32 19.31633 -97.26221 31413 ft 451 kts 98°
2026-05-01 13:33 19.30079 -97.16420 31865 ft 451 kts 99°
2026-05-01 13:33 19.29046 -97.09923 32134 ft 451 kts 99°
2026-05-01 13:34 19.27999 -97.03359 32432 ft 449 kts 99°
2026-05-01 13:34 19.26961 -96.96858 32689 ft 448 kts 99°
2026-05-01 13:35 19.25918 -96.90349 32941 ft 447 kts 99°
2026-05-01 13:35 19.25402 -96.87133 32992 ft 448 kts 99°
2026-05-01 13:36 19.23821 -96.77300 32950 ft 454 kts 99°
2026-05-01 13:36 19.22219 -96.67371 32894 ft 459 kts 99°
2026-05-01 13:37 19.21142 -96.60715 32879 ft 460 kts 99°
2026-05-01 13:37 19.20058 -96.54031 32852 ft 461 kts 99°
2026-05-01 13:38 19.18424 -96.43995 32820 ft 461 kts 99°
2026-05-01 13:39 19.17336 -96.37327 32799 ft 461 kts 99°
2026-05-01 13:39 19.16243 -96.30642 32788 ft 461 kts 99°
2026-05-01 13:40 19.15146 -96.23951 32782 ft 461 kts 99°
2026-05-01 13:40 19.13215 -96.17528 32799 ft 460 kts 120°
2026-05-01 13:40 19.11353 -96.14826 32787 ft 459 kts 131°
2026-05-01 13:41 19.09268 -96.12273 32759 ft 460 kts 130°
2026-05-01 13:41 19.05159 -96.07072 32764 ft 461 kts 129°
2026-05-01 13:42 19.01086 -96.01851 32764 ft 461 kts 129°
2026-05-01 13:42 18.97003 -95.96602 32756 ft 462 kts 129°
2026-05-01 13:43 18.92930 -95.91363 32753 ft 462 kts 129°
2026-05-01 13:43 18.88834 -95.86098 32738 ft 463 kts 129°
2026-05-01 13:44 18.84729 -95.80826 32744 ft 463 kts 129°
2026-05-01 13:44 18.80636 -95.75572 32750 ft 462 kts 129°
2026-05-01 13:45 18.76555 -95.70340 32751 ft 462 kts 129°
2026-05-01 13:45 18.72464 -95.65099 32750 ft 462 kts 129°
2026-05-01 13:46 18.68365 -95.59852 32762 ft 462 kts 129°
2026-05-01 13:46 18.64281 -95.54628 32764 ft 462 kts 129°
2026-05-01 13:47 18.60194 -95.49404 32766 ft 462 kts 129°
2026-05-01 13:47 18.56089 -95.44162 32776 ft 462 kts 129°
2026-05-01 13:48 18.52010 -95.38958 32795 ft 462 kts 129°
2026-05-01 13:48 18.47895 -95.33712 32815 ft 461 kts 129°
2026-05-01 13:49 18.43812 -95.28513 32824 ft 461 kts 129°
2026-05-01 13:49 18.39732 -95.23319 32832 ft 461 kts 129°
2026-05-01 13:50 18.35634 -95.18108 32823 ft 461 kts 129°
2026-05-01 13:50 18.31562 -95.12934 32828 ft 461 kts 129°
2026-05-01 13:51 18.27465 -95.07732 32846 ft 461 kts 129°
2026-05-01 13:51 18.23380 -95.02550 32870 ft 461 kts 129°
2026-05-01 13:52 18.19273 -94.97345 32871 ft 462 kts 129°
2026-05-01 13:52 18.15152 -94.92126 32850 ft 462 kts 129°
2026-05-01 13:53 18.11059 -94.86946 32829 ft 461 kts 129°
2026-05-01 13:53 18.04914 -94.79177 32813 ft 460 kts 128°
2026-05-01 13:54 18.00809 -94.73992 32802 ft 459 kts 129°
2026-05-01 13:54 17.96733 -94.68849 32799 ft 460 kts 129°
2026-05-01 13:55 17.92638 -94.63686 32793 ft 459 kts 129°
2026-05-01 13:55 17.88537 -94.58518 32792 ft 459 kts 129°
2026-05-01 13:56 17.84456 -94.53382 32796 ft 458 kts 129°
2026-05-01 13:56 17.80398 -94.48277 32797 ft 456 kts 129°
2026-05-01 13:57 17.77004 -94.44010 32800 ft 454 kts 129°
2026-05-01 13:57 17.72283 -94.38081 32805 ft 453 kts 129°
2026-05-01 13:58 17.68233 -94.32999 32818 ft 453 kts 129°
2026-05-01 13:58 17.64195 -94.27934 32827 ft 454 kts 129°
2026-05-01 13:59 17.60136 -94.22847 32834 ft 454 kts 129°
2026-05-01 13:59 17.56088 -94.17780 32839 ft 454 kts 129°
2026-05-01 14:00 17.52015 -94.12685 32851 ft 454 kts 129°
2026-05-01 14:00 17.47981 -94.07641 32856 ft 453 kts 129°
2026-05-01 14:01 17.43947 -94.02602 32862 ft 452 kts 129°
2026-05-01 14:01 17.39882 -93.97527 32878 ft 452 kts 129°
2026-05-01 14:02 17.35825 -93.92465 32899 ft 452 kts 129°
2026-05-01 14:02 17.31799 -93.87449 32917 ft 452 kts 129°
2026-05-01 14:03 17.27751 -93.82407 32917 ft 452 kts 129°
2026-05-01 14:03 17.23710 -93.77377 32915 ft 451 kts 129°
2026-05-01 14:04 17.19661 -93.72343 32929 ft 451 kts 129°
2026-05-01 14:04 17.16258 -93.68114 32937 ft 451 kts 129°
2026-05-01 14:05 17.11551 -93.62270 32941 ft 451 kts 129°
2026-05-01 14:05 17.07489 -93.57228 32962 ft 451 kts 129°
2026-05-01 14:06 17.03459 -93.52232 32959 ft 452 kts 129°
2026-05-01 14:06 16.99392 -93.47192 32973 ft 451 kts 129°
2026-05-01 14:07 16.95363 -93.42204 33004 ft 450 kts 129°
2026-05-01 14:08 16.89292 -93.34695 33024 ft 450 kts 129°
2026-05-01 14:08 16.85244 -93.29692 33035 ft 450 kts 129°
2026-05-01 14:09 16.81187 -93.24683 33034 ft 451 kts 129°
2026-05-01 14:09 16.77108 -93.19647 32467 ft 463 kts 129°
2026-05-01 14:09 16.75018 -93.17071 32014 ft 470 kts 129°
2026-05-01 14:10 16.72914 -93.14477 31547 ft 469 kts 129°
2026-05-01 14:10 16.70825 -93.11902 31086 ft 460 kts 129°
2026-05-01 14:10 16.68764 -93.09362 30623 ft 459 kts 129°
2026-05-01 14:10 16.66677 -93.06792 30155 ft 461 kts 129°
2026-05-01 14:11 16.64616 -93.04255 29698 ft 463 kts 129°
2026-05-01 14:11 16.60449 -92.99128 28781 ft 465 kts 129°
2026-05-01 14:11 16.58357 -92.96557 28337 ft 465 kts 129°
2026-05-01 14:12 16.56259 -92.93977 27942 ft 467 kts 129°
2026-05-01 14:12 16.54145 -92.91381 27488 ft 468 kts 129°
2026-05-01 14:12 16.52041 -92.88796 27048 ft 469 kts 129°
2026-05-01 14:12 16.49957 -92.86237 26659 ft 470 kts 129°
2026-05-01 14:13 16.47840 -92.83639 26210 ft 471 kts 128°
2026-05-01 14:13 16.46420 -92.81897 25919 ft 472 kts 128°
2026-05-01 14:13 16.43579 -92.78411 25541 ft 472 kts 128°
2026-05-01 14:13 16.41450 -92.75800 25286 ft 474 kts 128°
2026-05-01 14:14 16.39311 -92.73179 25050 ft 474 kts 128°
2026-05-01 14:14 16.37179 -92.70567 24866 ft 477 kts 128°
2026-05-01 14:14 16.35013 -92.67914 24667 ft 483 kts 128°
2026-05-01 14:14 16.32856 -92.65273 24474 ft 484 kts 128°
2026-05-01 14:15 16.30699 -92.62634 24336 ft 475 kts 128°
2026-05-01 14:15 16.28566 -92.60023 24244 ft 474 kts 128°
2026-05-01 14:15 16.26422 -92.57402 24120 ft 477 kts 128°
2026-05-01 14:15 16.24276 -92.54779 23999 ft 477 kts 128°
2026-05-01 14:16 16.22101 -92.52121 23874 ft 477 kts 128°
2026-05-01 14:16 16.19961 -92.49506 23781 ft 477 kts 128°
2026-05-01 14:16 16.17816 -92.46887 23655 ft 469 kts 128°
2026-05-01 14:16 16.15739 -92.44355 23521 ft 448 kts 127°
2026-05-01 14:17 16.13760 -92.41941 23364 ft 429 kts 127°
2026-05-01 14:17 16.11877 -92.39644 23216 ft 413 kts 127°
2026-05-01 14:17 16.10015 -92.37373 23086 ft 417 kts 127°
2026-05-01 14:17 16.08114 -92.35053 22989 ft 425 kts 127°
2026-05-01 14:18 16.06166 -92.32677 23031 ft 434 kts 128°
2026-05-01 14:18 16.04179 -92.30257 23027 ft 440 kts 127°
2026-05-01 14:18 16.02192 -92.27837 23009 ft 438 kts 127°
2026-05-01 14:18 16.00895 -92.26260 23011 ft 436 kts 127°
2026-05-01 14:19 15.98258 -92.23048 23008 ft 437 kts 128°
2026-05-01 14:19 15.96286 -92.20650 23009 ft 437 kts 128°
2026-05-01 14:19 15.94313 -92.18251 23002 ft 428 kts 128°
2026-05-01 14:19 15.92422 -92.15953 22991 ft 417 kts 128°
2026-05-01 14:20 15.90540 -92.13664 23011 ft 422 kts 128°
2026-05-01 14:20 15.86686 -92.08981 23005 ft 425 kts 128°
2026-05-01 14:20 15.84751 -92.06633 23017 ft 424 kts 128°
2026-05-01 14:21 15.82836 -92.04309 23017 ft 424 kts 127°
2026-05-01 14:21 15.80913 -92.01976 23010 ft 425 kts 127°
2026-05-01 14:21 15.79017 -91.99676 23005 ft 425 kts 127°
2026-05-01 14:22 15.75158 -91.94995 23029 ft 424 kts 127°
2026-05-01 14:22 15.73257 -91.92690 23031 ft 424 kts 127°
2026-05-01 14:22 15.71324 -91.90349 23049 ft 424 kts 128°
2026-05-01 14:22 15.69407 -91.88026 23065 ft 424 kts 128°
2026-05-01 14:23 15.67490 -91.85706 23083 ft 424 kts 128°
2026-05-01 14:23 15.65575 -91.83389 23112 ft 424 kts 127°
2026-05-01 14:23 15.63637 -91.81043 23123 ft 424 kts 127°
2026-05-01 14:23 15.61717 -91.78720 23136 ft 425 kts 128°
2026-05-01 14:24 15.59813 -91.76419 23136 ft 425 kts 127°
2026-05-01 14:24 15.57889 -91.74093 23148 ft 425 kts 127°
2026-05-01 14:24 15.55964 -91.71768 23159 ft 419 kts 127°
2026-05-01 14:24 15.54106 -91.69524 23151 ft 400 kts 127°
2026-05-01 14:25 15.52322 -91.67370 22776 ft 391 kts 127°
2026-05-01 14:25 15.50569 -91.65253 22347 ft 383 kts 127°
2026-05-01 14:25 15.48856 -91.63186 21919 ft 376 kts 127°
2026-05-01 14:25 15.47151 -91.61127 21486 ft 369 kts 127°
2026-05-01 14:26 15.45506 -91.59142 20998 ft 365 kts 127°
2026-05-01 14:26 15.42281 -91.55253 20324 ft 349 kts 127°
2026-05-01 14:26 15.40709 -91.53359 19935 ft 346 kts 127°
2026-05-01 14:27 15.39089 -91.51402 19606 ft 368 kts 128°
2026-05-01 14:27 15.37377 -91.49339 19275 ft 379 kts 128°
2026-05-01 14:27 15.35663 -91.47276 18914 ft 378 kts 128°
2026-05-01 14:28 15.32213 -91.43121 18204 ft 387 kts 128°
2026-05-01 14:28 15.30456 -91.41007 17847 ft 389 kts 128°
2026-05-01 14:28 15.28698 -91.38892 17478 ft 386 kts 128°
2026-05-01 14:28 15.26936 -91.36774 17117 ft 382 kts 128°
2026-05-01 14:29 15.25218 -91.34708 16756 ft 378 kts 128°
2026-05-01 14:29 15.23504 -91.32648 16400 ft 375 kts 129°
2026-05-01 14:30 15.18473 -91.26603 15462 ft 362 kts 129°
2026-05-01 14:30 15.16831 -91.24632 15184 ft 354 kts 129°
2026-05-01 14:30 15.15238 -91.22719 14889 ft 347 kts 129°
2026-05-01 14:31 15.12152 -91.19014 14328 ft 335 kts 129°
2026-05-01 14:31 15.10653 -91.17215 14052 ft 329 kts 129°
2026-05-01 14:31 15.09167 -91.15432 13774 ft 323 kts 129°
2026-05-01 14:31 15.07711 -91.13687 13499 ft 318 kts 129°
2026-05-01 14:32 15.06272 -91.11961 13215 ft 314 kts 129°
2026-05-01 14:32 15.04850 -91.10258 12941 ft 310 kts 129°
2026-05-01 14:32 15.03449 -91.08579 12672 ft 306 kts 129°
2026-05-01 14:32 15.02068 -91.06923 12476 ft 302 kts 130°
2026-05-01 14:33 15.00719 -91.05308 12295 ft 298 kts 130°
2026-05-01 14:33 14.99358 -91.03678 12109 ft 295 kts 130°
2026-05-01 14:33 14.98034 -91.02093 11902 ft 293 kts 130°
2026-05-01 14:33 14.96703 -91.00498 11722 ft 290 kts 130°
2026-05-01 14:34 14.95381 -90.98917 11533 ft 288 kts 130°
2026-05-01 14:34 14.94075 -90.97354 11325 ft 289 kts 130°
2026-05-01 14:34 14.92762 -90.95784 11133 ft 289 kts 130°
2026-05-01 14:34 14.91442 -90.94205 10942 ft 291 kts 130°
2026-05-01 14:35 14.90111 -90.92612 10740 ft 294 kts 130°
2026-05-01 14:35 14.88759 -90.90993 10652 ft 292 kts 130°
2026-05-01 14:35 14.87430 -90.89401 10674 ft 303 kts 130°
2026-05-01 14:35 14.86020 -90.87712 10683 ft 316 kts 130°
2026-05-01 14:36 14.84554 -90.85959 10684 ft 328 kts 130°
2026-05-01 14:36 14.83065 -90.84109 10677 ft 340 kts 126°
2026-05-01 14:36 14.81913 -90.81956 10670 ft 343 kts 115°
2026-05-01 14:36 14.81029 -90.79701 10640 ft 338 kts 108°
2026-05-01 14:37 14.80285 -90.77412 10638 ft 333 kts 109°
2026-05-01 14:37 14.79556 -90.75158 10612 ft 326 kts 109°
2026-05-01 14:37 14.78855 -90.72977 10600 ft 316 kts 109°
2026-05-01 14:37 14.78175 -90.70852 10603 ft 307 kts 108°
2026-05-01 14:38 14.77515 -90.68795 10610 ft 298 kts 109°
2026-05-01 14:38 14.76871 -90.66786 10538 ft 293 kts 108°
2026-05-01 14:38 14.76235 -90.64752 10096 ft 300 kts 108°
2026-05-01 14:38 14.75616 -90.62693 9779 ft 300 kts 107°
2026-05-01 14:39 14.75027 -90.60662 9653 ft 295 kts 109°
2026-05-01 14:39 14.74209 -90.58736 9477 ft 286 kts 120°
2026-05-01 14:39 14.73029 -90.57233 9742 ft 254 kts 137°
2026-05-01 14:39 14.71658 -90.56222 9784 ft 234 kts 149°
2026-05-01 14:40 14.70298 -90.55370 9567 ft 224 kts 146°
2026-05-01 14:40 14.69055 -90.54417 9089 ft 224 kts 139°
2026-05-01 14:40 14.67916 -90.53317 8594 ft 223 kts 137°
2026-05-01 14:40 14.66761 -90.52278 8211 ft 216 kts 140°
2026-05-01 14:41 14.65626 -90.51269 7743 ft 211 kts 138°
2026-05-01 14:41 14.64397 -90.50568 7381 ft 196 kts 168°
2026-05-01 14:41 14.63135 -90.50780 7009 ft 182 kts 205°
2026-05-01 14:41 14.61951 -90.51339 6618 ft 198 kts 202°
2026-05-01 14:42 14.60573 -90.51865 6637 ft 225 kts 199°
2026-05-01 14:42 14.59047 -90.52467 6765 ft 234 kts 211°
2026-05-01 14:42 14.58078 -90.53741 7079 ft 228 kts 251°
2026-05-01 14:42 14.57897 -90.55383 7223 ft 237 kts 266°
2026-05-01 14:43 14.58225 -90.57044 7429 ft 239 kts 293°
2026-05-01 14:43 14.59305 -90.58375 7481 ft 244 kts 323°
2026-05-01 14:43 14.60862 -90.59024 7516 ft 245 kts 351°
2026-05-01 14:43 14.62562 -90.58967 7654 ft 240 kts
2026-05-01 14:44 14.64209 -90.58685 7683 ft 238 kts 10°
2026-05-01 14:44 14.67405 -90.58006 7552 ft 232 kts 19°
2026-05-01 14:44 14.68694 -90.57105 7606 ft 222 kts 50°
2026-05-01 14:45 14.69379 -90.55711 7488 ft 219 kts 77°
2026-05-01 14:45 14.69237 -90.52692 7269 ft 206 kts 113°
2026-05-01 14:45 14.68497 -90.51559 7458 ft 177 kts 137°
2026-05-01 14:46 14.67509 -90.50832 7253 ft 176 kts 150°
2026-05-01 14:46 14.65142 -90.50491 6654 ft 178 kts 194°
2026-05-01 14:46 14.63957 -90.50893 6314 ft 181 kts 200°
2026-05-01 14:47 14.62756 -90.51319 5977 ft 181 kts 197°
2026-05-01 14:47 14.61555 -90.51698 5608 ft 182 kts 198°
2026-05-01 14:47 14.60358 -90.52090 5252 ft 179 kts 197°
2026-05-01 14:48 14.58123 -90.52811 4887 ft 143 kts 197°
2026-05-01 14:48 14.57354 -90.53059 4893 ft 59 kts 197°
2026-05-01 14:48 14.57053 -90.53111 4885 ft 7 kts 95°
2026-05-01 14:49 14.57076 -90.53082 4887 ft 0 kts 27°
2026-05-01 14:49 14.57077 -90.53082 4887 ft 1 kts 26°
2026-05-01 14:50 14.57107 -90.53069 4888 ft 4 kts 21°
2026-05-01 14:50 14.57295 -90.53000 4893 ft 16 kts 16°
2026-05-01 14:51 14.57424 -90.52963 4895 ft 20 kts 19°
2026-05-01 14:51 14.57668 -90.52885 4892 ft 16 kts 17°
2026-05-01 14:52 14.57886 -90.52846 4889 ft 16 kts 291°
2026-05-01 14:52 14.57997 -90.52854 4886 ft 20 kts 17°
2026-05-01 14:52 14.58355 -90.52738 4897 ft 30 kts 18°
2026-05-01 14:53 14.58508 -90.52696 4904 ft 18 kts 349°
2026-05-01 14:53 14.58602 -90.52727 4907 ft 13 kts 16°
2026-05-01 14:53 14.58684 -90.52750 4909 ft 17 kts 282°
2026-05-01 14:53 14.58697 -90.52906 4908 ft 19 kts 285°
2026-05-01 14:54 14.58709 -90.52947 4909 ft 0 kts 288°